[[{"header":{"parameterUnit":"m.s-1","parameterCategory":1,"la1":30.2991,"la2":30.254,"lo1":-89.0895,"lo2":-89.0444,"dy":0.0017,"dx":0.0017,"nx":28,"ny":28,"refTime":"2024-10-04T03:00:00:Z","depth":0,"parameterNumber":2,"parameterNumberName":"U-component_of_WINDS"},"data":[0,0,0,0,0,0,0,0,0,0,0,0,0,0,0,0,0,0,0,0,0,0,0,0,0,0,0,0,0,0,0,0,0,0,0,0,0,0,0,0,0,0,0,0,0,0,0,0,0,0,0,0,0,0,0,0,0,0,-4.1423,-4.1423,0,-4.145,-4.145,-4.145,-4.1315,-4.1311,-4.1307,-4.1303,-4.1333,-4.1337,-4.1342,0,0,0,0,0,0,0,0,0,0,0,0,0,-4.1255,-4.1259,-4.1423,-4.1423,-4.1424,-4.145,-4.145,-4.1451,-4.1316,-4.1311,-4.1306,-4.1301,-4.1332,-4.1337,-4.1342,0,0,0,0,0,0,0,0,0,0,0,0,0,-4.131,-4.126,-4.1423,-4.1359,-4.1354,-4.145,-4.145,-4.1451,-4.1317,-4.1311,-4.1305,-4.1299,-4.133,-4.1336,-4.1343,-4.1502,0,0,-4.1363,-4.1366,0,0,0,0,0,0,0,0,-4.1307,-4.1316,-4.1368,-4.1364,-4.1358,-4.1373,-4.1402,-4.1468,-4.1318,-4.1331,-4.1303,-4.1296,-4.1351,-4.1356,-4.1374,-4.1503,-4.1504,-4.1364,-4.1368,-4.1371,-4.1373,0,0,0,0,0,0,0,-4.1303,-4.1314,-4.1433,-4.1369,-4.1363,-4.133,-4.1331,-4.1414,-4.1374,-4.1329,-4.1319,-4.1324,-4.1347,-4.1368,-4.1373,-4.1505,-4.1364,-4.137,-4.1374,-4.1376,-4.1765,-4.1771,0,0,0,0,0,0,-4.1308,-4.1312,-4.1433,-4.1434,-4.1317,-4.1337,-4.1339,-4.1374,-4.1372,-4.1366,-4.1329,-4.1318,-4.1359,-4.1366,-4.1374,-4.156,-4.1371,-4.1377,-4.1381,-4.1759,-4.1767,-4.1773,0,0,0,0,0,0,-4.1305,-4.132,-4.1432,-4.137,-4.1382,-4.1347,-4.1387,-4.1378,-4.1398,-4.1372,-4.1365,-4.1358,-4.1355,-4.1365,-4.1471,-4.1559,-4.138,-4.1386,-4.1752,-4.1761,-4.177,-4.1934,0,0,0,0,0,0,-4.13,-4.1319,-4.138,-4.1373,-4.1386,-4.1528,-4.1393,-4.1382,-4.141,-4.1395,-4.1397,-4.1392,-4.1351,-4.1461,-4.1477,-4.1565,-4.1391,-4.1743,-4.1756,-4.1767,-4.192,-4.1948,-4.1971,0,0,0,0,0,-4.1295,-4.1425,-4.1383,-4.1399,-4.146,-4.1534,-4.1541,-4.1491,-4.1417,-4.1477,-4.1461,-4.1392,-4.1546,-4.1473,-4.149,-4.1581,-4.1738,-4.1752,-4.1766,-4.1909,-4.1942,-4.197,0,0,0,0,0,0,-4.1444,-4.1423,-4.1377,-4.1508,-4.1524,-4.1511,-4.1585,-4.1528,-4.1565,-4.155,-4.1487,-4.1488,-4.1606,-4.1603,-4.1523,-4.1735,-4.1629,-4.1648,-4.1732,-4.1764,-4.1788,-4.1787,-4.1397,0,0,0,0,0,-4.1492,-4.1553,-4.1531,-4.165,-4.166,-4.1622,-4.1651,-4.1611,-4.1625,-4.1631,-4.1622,-4.1639,-4.1691,-4.1727,-4.1773,-4.1918,-4.1917,-4.1989,-4.2015,-4.2036,-4.2053,-4.213,-4.2161,-4.182,-4.182,-4.182,0,0,-4.1592,-4.1588,-4.1631,-4.168,-4.1687,-4.1752,-4.1628,-4.1702,-4.175,-4.1642,-4.1742,-4.1736,-4.175,-4.1877,-4.1932,-4.1879,-4.2146,-4.2054,-4.2071,-4.2076,-4.2148,-4.218,-4.2209,-4.183,-4.1828,-4.1827,0,0,-4.1808,-4.1811,-4.191,-4.192,-4.1932,-4.1905,-4.1929,-4.1924,-4.1916,-4.2015,-4.1936,-4.1991,-4.2083,-4.2096,-4.2115,-4.2334,-4.2272,-4.2351,-4.2485,-4.256,-4.2587,-4.2611,-4.269,-4.2719,-4.2368,-4.2368,-4.2369,0,-4.1932,-4.2026,-4.1968,-4.2048,-4.2072,-4.1976,-4.2076,-4.2088,-4.2116,-4.2134,-4.2074,-4.2186,-4.2188,-4.2317,-4.237,-4.2388,-4.2414,-4.2352,-4.2588,-4.2611,-4.2632,-4.2707,-4.2737,-4.2378,-4.2377,-4.2376,-4.2375,0,-4.2178,-4.2245,-4.2323,-4.2351,-4.2383,-4.2473,-4.2428,-4.2468,-4.2425,-4.2405,-4.2507,-4.2506,-4.2551,-4.2578,-4.2537,-4.2701,-4.2667,-4.2598,-4.2492,-4.2675,-4.2744,-4.2773,-4.2392,-4.2388,-4.2385,-4.2383,0,0,-4.2491,-4.2484,-4.2514,-4.2526,-4.2531,-4.2582,-4.2667,-4.2709,-4.2745,-4.2767,-4.2837,-4.2915,-4.2851,-4.2873,-4.2832,-4.2898,-4.3073,-4.2821,-4.282,-4.2869,-4.3254,-4.3308,-4.3342,-4.3031,-4.3036,-4.304,-4.3254,0,-4.2703,-4.2848,-4.2797,-4.2945,-4.3006,-4.2915,-4.2989,-4.3001,-4.2984,-4.3033,-4.3014,-4.3071,-4.2982,-4.2994,-4.3056,-4.3039,-4.315,-4.3022,-4.3097,-4.31,-4.3098,-4.3378,-4.3434,-4.3636,-4.328,-4.3285,-4.3288,0,-4.2971,-4.3002,-4.3156,-4.3151,-4.3174,-4.3242,-4.3277,-4.3325,-4.3336,-4.3319,-4.3342,-4.3287,-4.337,-4.3262,-4.3375,-4.329,-4.3317,-4.3313,-4.332,-4.3326,-4.3207,-4.3393,-4.3698,-4.373,-4.333,-4.3327,-4.3324,0,-4.3185,-4.3266,-4.3368,-4.338,-4.3376,-4.3426,-4.3427,-4.3432,-4.3461,-4.3491,-4.3509,-4.3549,-4.3572,-4.3604,-4.3562,-4.3487,-4.3682,-4.357,-4.3671,-4.3673,-4.3718,-4.3716,-4.4034,-4.3733,-4.3733,-4.3732,-4.3732,0,-4.3429,-4.3527,-4.3464,-4.3528,-4.3634,-4.3575,-4.3682,-4.3673,-4.3678,-4.3738,-4.3661,-4.3719,-4.3658,-4.371,-4.3677,-4.3777,-4.3787,-4.3776,-4.3767,-4.3784,-4.3786,-4.3802,-4.3788,-4.374,-4.3738,-4.3737,-4.3735,0,-4.3687,-4.3649,-4.3755,-4.3742,-4.3741,-4.382,-4.3809,-4.3867,-4.3843,-4.392,-4.3935,-4.3899,-4.3957,-4.3916,-4.3974,-4.3951,-4.4083,-4.4053,-4.4079,-4.4072,-4.4175,-4.4167,-4.4516,-4.4559,-4.423,-4.4233,-4.4236,0,-4.3846,-4.3919,-4.3913,-4.3948,-4.3953,-4.4009,-4.4038,-4.3982,-4.4015,-4.4033,-4.4089,-4.4139,-4.4177,-4.4273,-4.4253,-4.4297,-4.4268,-4.4387,-4.4274,-4.4289,-4.4271,-4.4268,-4.4275,-4.4411,-4.4415,-4.4418,-4.442,0,-4.4132,-4.4109,-4.4153,-4.4192,-4.4228,-4.4255,-4.4276,-4.4308,-4.4251,-4.4293,-4.435,-4.4379,-4.4437,-4.4489,-4.4525,-4.4525,-4.4465,-4.4456,-4.4482,-4.4501,-4.4514,-4.451,-4.4143,-4.4449,-4.4446,-4.4444,-4.4442,-4.4441,-4.4346,-4.4407,-4.4412,-4.4464,-4.4473,-4.4495,-4.4549,-4.4532,-4.4578,-4.4621,-4.4584,-4.4654,-4.4662,-4.4703,-4.4712,-4.4765,-4.4716,-4.4754,-4.4763,-4.4774,-4.4789,-4.4504,-4.4771,-4.477,-4.4769,-4.4769,-4.4768,0,-4.4629,-4.4628,-4.4676,-4.4707,-4.4748,-4.4685,-4.4705,-4.4743,-4.4805,-4.4817,-4.4856,-4.4922,-4.4971,-4.4954,-4.4998,-4.5044,-4.5017,-4.5057,-4.5054,-4.5056,-4.4829,-4.4803,-4.5078,-4.5078,-4.5078,-4.5078,-4.5078,-4.5078,-4.4782,-4.4881,-4.4859,-4.4962,-4.496,-4.5026,-4.5043,-4.5062,-4.5072,-4.5149,-4.5189,-4.5177,-4.5178,-4.5221,-4.5263,-4.5257,-4.5277,-4.5329,-4.5313,-4.5102,-4.5072,-4.5042,-4.5017,-4.5333,-4.5333,-4.5534,-4.5536,-4.5537]},{"header":{"parameterUnit":"m.s-1","parameterCategory":1,"la1":30.2991,"la2":30.254,"lo1":-89.0895,"lo2":-89.0444,"dy":0.0017,"dx":0.0017,"nx":28,"ny":28,"refTime":"2024-10-04T03:00:00:Z","depth":0,"parameterNumber":3,"parameterNumberName":"V-component_of_WINDS"},"data":[0,0,0,0,0,0,0,0,0,0,0,0,0,0,0,0,0,0,0,0,0,0,0,0,0,0,0,0,0,0,0,0,0,0,0,0,0,0,0,0,0,0,0,0,0,0,0,0,0,0,0,0,0,0,0,0,0,0,-3.1435,-3.1435,0,-3.1425,-3.1425,-3.1425,-3.1381,-3.138,-3.1379,-3.1378,-3.1367,-3.1368,-3.1368,0,0,0,0,0,0,0,0,0,0,0,0,0,-3.1416,-3.1416,-3.1435,-3.1435,-3.1435,-3.1425,-3.1425,-3.1425,-3.1381,-3.138,-3.1379,-3.1378,-3.1367,-3.1368,-3.1368,0,0,0,0,0,0,0,0,0,0,0,0,0,-3.1417,-3.1417,-3.1435,-3.1412,-3.141,-3.1425,-3.1425,-3.1425,-3.1381,-3.138,-3.1378,-3.1377,-3.1367,-3.1368,-3.1369,-3.1405,0,0,-3.1372,-3.1372,0,0,0,0,0,0,0,0,-3.1417,-3.1417,-3.1416,-3.1414,-3.1411,-3.1403,-3.1414,-3.1418,-3.1382,-3.1392,-3.1378,-3.1376,-3.138,-3.138,-3.1381,-3.1405,-3.1404,-3.1372,-3.1372,-3.1373,-3.1373,0,0,0,0,0,0,0,-3.1417,-3.1418,-3.1431,-3.1416,-3.1413,-3.1402,-3.14,-3.1414,-3.1395,-3.1391,-3.1388,-3.1387,-3.1379,-3.138,-3.1381,-3.1404,-3.1372,-3.1372,-3.1373,-3.1373,-3.1454,-3.1456,0,0,0,0,0,0,-3.142,-3.1418,-3.1431,-3.1431,-3.141,-3.1403,-3.1402,-3.1407,-3.1395,-3.1391,-3.1389,-3.1385,-3.138,-3.138,-3.138,-3.142,-3.1373,-3.1374,-3.1374,-3.1453,-3.1455,-3.1456,0,0,0,0,0,0,-3.142,-3.1422,-3.1432,-3.1423,-3.1424,-3.1405,-3.1412,-3.1408,-3.1409,-3.1393,-3.1389,-3.1394,-3.1378,-3.1379,-3.1399,-3.142,-3.1374,-3.1375,-3.1451,-3.1453,-3.1456,-3.1503,0,0,0,0,0,0,-3.1419,-3.1422,-3.1436,-3.1424,-3.1424,-3.1451,-3.1413,-3.1408,-3.1411,-3.1407,-3.1397,-3.1394,-3.1377,-3.1397,-3.14,-3.142,-3.1376,-3.1449,-3.1452,-3.1455,-3.1499,-3.1506,-3.1512,0,0,0,0,0,-3.1419,-3.145,-3.1437,-3.1439,-3.1442,-3.1452,-3.1453,-3.1433,-3.1413,-3.1427,-3.1416,-3.1394,-3.1417,-3.14,-3.1402,-3.1423,-3.1448,-3.1451,-3.1455,-3.1496,-3.1505,-3.1512,0,0,0,0,0,0,-3.1465,-3.1448,-3.1433,-3.1462,-3.1459,-3.1445,-3.1462,-3.1443,-3.1446,-3.1442,-3.1417,-3.1415,-3.1438,-3.1433,-3.1414,-3.1457,-3.1429,-3.1433,-3.1459,-3.1468,-3.1474,-3.1475,-3.1376,0,0,0,0,0,-3.1479,-3.1489,-3.1473,-3.15,-3.1499,-3.1481,-3.1485,-3.147,-3.1466,-3.1464,-3.1455,-3.1452,-3.1458,-3.1463,-3.1468,-3.1498,-3.1495,-3.1514,-3.152,-3.1526,-3.1529,-3.1543,-3.1551,-3.1468,-3.1468,-3.1468,0,0,-3.1507,-3.1499,-3.1507,-3.1509,-3.1505,-3.1515,-3.148,-3.1493,-3.15,-3.1466,-3.1484,-3.1477,-3.1472,-3.1497,-3.1507,-3.1493,-3.1552,-3.153,-3.1535,-3.1535,-3.1548,-3.1556,-3.1563,-3.147,-3.147,-3.1469,0,0,-3.1563,-3.1558,-3.1579,-3.1575,-3.157,-3.1557,-3.1562,-3.1551,-3.1544,-3.1562,-3.1536,-3.1544,-3.1556,-3.1553,-3.1553,-3.1606,-3.1585,-3.1608,-3.1643,-3.1657,-3.1663,-3.1669,-3.1686,-3.1693,-3.1612,-3.1612,-3.1612,0,-3.1598,-3.1613,-3.1592,-3.1606,-3.1607,-3.1576,-3.1596,-3.1594,-3.159,-3.1591,-3.1575,-3.1588,-3.1583,-3.1606,-3.1618,-3.162,-3.1624,-3.1609,-3.1664,-3.167,-3.1674,-3.1691,-3.1698,-3.1615,-3.1615,-3.1614,-3.1614,0,-3.1656,-3.1667,-3.1684,-3.1681,-3.1684,-3.1701,-3.1682,-3.1687,-3.1672,-3.1661,-3.1678,-3.167,-3.1672,-3.1677,-3.1662,-3.1697,-3.1688,-3.1669,-3.164,-3.1685,-3.17,-3.1707,-3.1619,-3.1618,-3.1617,-3.1616,0,0,-3.1742,-3.1725,-3.1732,-3.1729,-3.172,-3.1727,-3.1742,-3.1744,-3.1749,-3.1747,-3.1758,-3.1768,-3.175,-3.175,-3.1734,-3.1747,-3.1787,-3.1725,-3.1725,-3.1736,-3.1824,-3.1837,-3.1845,-3.1774,-3.1775,-3.1776,-3.1824,0,-3.1794,-3.1819,-3.1799,-3.1828,-3.1836,-3.1807,-3.182,-3.1815,-3.1805,-3.181,-3.1799,-3.1806,-3.1782,-3.1781,-3.1792,-3.178,-3.1804,-3.1777,-3.1783,-3.1784,-3.1785,-3.1853,-3.1868,-3.1913,-3.1829,-3.183,-3.1831,0,-3.1858,-3.1858,-3.1887,-3.1875,-3.1877,-3.189,-3.1889,-3.1895,-3.1888,-3.188,-3.1879,-3.186,-3.1873,-3.1845,-3.1862,-3.1844,-3.1845,-3.184,-3.1841,-3.184,-3.181,-3.1853,-3.1927,-3.1934,-3.184,-3.184,-3.1839,0,-3.1915,-3.1923,-3.1941,-3.194,-3.1926,-3.1935,-3.1929,-3.1921,-3.1923,-3.1922,-3.1923,-3.1924,-3.1924,-3.1925,-3.1906,-3.1888,-3.1925,-3.1896,-3.1918,-3.1918,-3.1926,-3.1926,-3.2001,-3.1929,-3.1929,-3.1929,-3.1929,0,-3.1975,-3.1994,-3.1966,-3.1977,-3.1996,-3.1974,-3.1993,-3.1985,-3.1978,-3.1986,-3.1961,-3.1969,-3.1944,-3.1949,-3.1935,-3.195,-3.1951,-3.1944,-3.1939,-3.1945,-3.1946,-3.1945,-3.1941,-3.1931,-3.193,-3.193,-3.193,0,-3.2042,-3.2025,-3.2042,-3.2027,-3.2023,-3.2038,-3.2025,-3.2034,-3.2022,-3.2032,-3.2033,-3.2014,-3.2019,-3.2,-3.2002,-3.1992,-3.2015,-3.2006,-3.2017,-3.2013,-3.2035,-3.2033,-3.2111,-3.212,-3.2045,-3.2045,-3.2046,0,-3.2081,-3.2094,-3.208,-3.2083,-3.2079,-3.2085,-3.2087,-3.2064,-3.2067,-3.206,-3.2069,-3.2072,-3.2073,-3.2081,-3.2067,-3.2068,-3.2058,-3.2086,-3.2058,-3.2063,-3.2057,-3.2056,-3.2056,-3.2091,-3.2092,-3.2093,-3.2093,0,-3.215,-3.2141,-3.2144,-3.2143,-3.2145,-3.2144,-3.2141,-3.2145,-3.2121,-3.2125,-3.2129,-3.213,-3.2131,-3.2133,-3.2131,-3.2125,-3.2105,-3.2102,-3.2107,-3.2112,-3.2118,-3.2113,-3.2031,-3.21,-3.21,-3.2099,-3.2099,-3.2098,-3.2203,-3.2213,-3.2204,-3.2208,-3.2203,-3.22,-3.2208,-3.2196,-3.2199,-3.2198,-3.2185,-3.2191,-3.2183,-3.2178,-3.2174,-3.2178,-3.2165,-3.2172,-3.2174,-3.2175,-3.2178,-3.2118,-3.2178,-3.2177,-3.2177,-3.2177,-3.2177,0,-3.227,-3.2263,-3.2267,-3.2263,-3.2265,-3.2246,-3.2241,-3.2245,-3.2251,-3.2245,-3.2246,-3.225,-3.2252,-3.2238,-3.2237,-3.2243,-3.2234,-3.2244,-3.2243,-3.2241,-3.2191,-3.2186,-3.2251,-3.2251,-3.2251,-3.2251,-3.2251,-3.2251,-3.2306,-3.232,-3.231,-3.2321,-3.2314,-3.232,-3.2318,-3.2315,-3.231,-3.2316,-3.2317,-3.2308,-3.2298,-3.2297,-3.2298,-3.2293,-3.2294,-3.2307,-3.2299,-3.2252,-3.2245,-3.2238,-3.2233,-3.2307,-3.2307,-3.2348,-3.2349,-3.2349]}]]